Location: Temple Hill
(37.3073°N, 88.6303°W)
Time: 16:54:33
(UTC+00:00)

Cosmos 1980 - Pass Details

Date: 23 November 2020
Orbit: 840 x 846 km, 71.0° (Epoch: 20 January)

Event Time Altitude Azimuth Distance (km) Brightness Sun altitude
Rises 23:16:00 0° 202° (SSW) 3,388 7.5 -7.6°
Reaches altitude 10° 23:18:26 10° 202° (SSW) 2,457 6.8 -8.0°
Maximum altitude 23:24:06 86° 291° (WNW) 852 3.8 -9.1°
Drops below altitude 10° 23:29:48 10° 21° (NNE) 2,473 5.8 -10.1°
Sets 23:32:15 0° 22° (NNE) 3,411 6.5 -10.6°
